Weather History for Wheeling, WV

Change the Weather History Date:

Friday, December 7, 2012

  Actual Average Record
Temperature  
Mean Temperature 47 °F 35 °F  
Max Temperature 50 °F 42 °F 67 °F (2004)
Min Temperature 43 °F 29 °F 13 °F (2008)
Degree Days  
Heating Degree Days 18 30  
Month to date heating degree days 121 200  
Since 1 July heating degree days 1346 1328  
Cooling Degree Days 0    
Month to date cooling degree days 0  
Year to date cooling degree days 996  
Moisture  
Dew Point 47 °F    
Average Humidity 79    
Maximum Humidity 100    
Minimum Humidity 58    
Precipitation  
Precipitation 1.11 in 0.07 in 1.11 in (2012)
Month to date precipitation 1.77 0.56  
Sea Level Pressure  
Sea Level Pressure 29.94 in    
Wind  
Wind Speed 5 mph (SSE)    
Max Wind Speed 13 mph    
Max Gust Speed 16 mph    
Visibility 3 miles    
Events Fog , Rain    
T = Trace of Precipitation, MM = Missing Value Source: NWS Daily Summary

Daily Weather History Graph

Daily Weather History Graph

Search for Another Location

Airport:

Trip Planner

Search our weather history database for the weather conditions in past years. The results will help you decide how hot, cold, wet, or windy it might be!

Date:

Astronomy

Dec. 07, 2012 Rise Set
Actual Time 7:31 AM EST 4:56 PM EST
Civil Twilight 7:01 AM EST 5:27 PM EST
Nautical Twilight 6:27 AM EST 6:01 PM EST
Astronomical Twilight 5:54 AM EST 6:33 PM EST
Moon 12:49 AM EST (12/7) 12:53 PM EST (12/7)
Length of Visible Light 10h 25m
Length of Day
9h 24m
Last Quarter, 39% of the Moon is Illuminated
Dec 7
Last Quarter
Dec 13
New
Dec 20
First Quarter
Dec 28
Full
Jan 4
Last Quarter

Hourly Weather History & Observations

Time (EST) Temp. Windchill Dew Point Humidity Pressure Visibility Wind Dir Wind Speed Gust Speed Precip Events Conditions
12:53 AM 46.0 °F 43.9 °F 32.0 °F 58% 30.04 in 10.0 mi South 4.6 mph - 0.00 in Rain Light Rain
1:53 AM 44.1 °F 40.1 °F 37.9 °F 79% 30.02 in 10.0 mi South 6.9 mph - 0.00 in Rain Light Rain
2:13 AM 42.8 °F 41.1 °F 39.2 °F 87% 30.01 in 6.0 mi SSW 3.5 mph - 0.01 in Rain Light Rain
2:37 AM 44.6 °F - 41.0 °F 87% 30.00 in 6.0 mi Calm Calm - 0.06 in Rain Light Rain
2:53 AM 43.0 °F 39.5 °F 41.0 °F 93% 30.02 in 6.0 mi South 5.8 mph - 0.07 in Rain Light Rain
3:53 AM 45.0 °F 43.5 °F 43.0 °F 93% 30.00 in 3.0 mi South 3.5 mph - 0.11 in Rain Heavy Rain
4:53 AM 46.0 °F 42.5 °F 44.1 °F 93% 30.00 in 6.0 mi SW 6.9 mph - 0.03 in Rain Light Rain
5:42 AM 44.6 °F 40.7 °F 44.6 °F 100% 29.98 in 2.5 mi SSW 6.9 mph - 0.10 in Rain Heavy Rain
5:53 AM 46.0 °F 43.1 °F 44.1 °F 93% 30.01 in 3.0 mi SSW 5.8 mph - 0.11 in Rain Light Rain
6:03 AM 44.6 °F 42.2 °F 44.6 °F 100% 29.98 in 4.0 mi SW 4.6 mph - 0.00 in Rain Light Rain
6:15 AM 46.4 °F 43.5 °F 44.6 °F 93% 29.98 in 6.0 mi SW 5.8 mph - 0.00 in Rain Light Rain
6:26 AM 46.4 °F 43.5 °F 44.6 °F 93% 29.98 in 5.0 mi South 5.8 mph - 0.01 in Rain Light Rain
6:40 AM 46.4 °F 42.9 °F 44.6 °F 93% 29.98 in 5.0 mi SSW 6.9 mph - 0.03 in Rain Light Rain
6:53 AM 46.0 °F 43.9 °F 45.0 °F 96% 30.01 in 4.0 mi SSW 4.6 mph - 0.05 in Rain Light Rain
7:53 AM 46.9 °F - 46.0 °F 97% 30.00 in 4.0 mi South 5.8 mph - 0.06 in Rain Light Rain
8:53 AM 48.9 °F - 46.9 °F 93% 30.01 in 6.0 mi SW 9.2 mph - 0.01 in   Overcast
9:28 AM 48.2 °F - 46.4 °F 93% 30.00 in 3.0 mi SW 9.2 mph - N/A   Overcast
9:40 AM 48.2 °F - 46.4 °F 93% 30.00 in 2.5 mi SW 9.2 mph - N/A   Overcast
9:51 AM 48.2 °F - 48.2 °F 100% 30.00 in 1.2 mi SW 8.1 mph - N/A   Overcast
9:53 AM 48.0 °F - 48.0 °F 100% 30.03 in 1.0 mi SW 10.4 mph - N/A   Overcast
9:58 AM 48.2 °F - 48.2 °F 100% 30.00 in 0.5 mi SW 6.9 mph - N/A Fog Fog
10:10 AM 48.2 °F - 48.2 °F 100% 30.00 in 0.2 mi SW 8.1 mph - N/A Fog Fog
10:53 AM 48.9 °F - 48.0 °F 97% 30.02 in 0.5 mi SW 8.1 mph - 0.00 in Fog , Rain Light Rain
11:29 AM 48.2 °F - 48.2 °F 100% 29.99 in 1.0 mi SW 5.8 mph - 0.00 in   Overcast
11:37 AM 48.2 °F - 48.2 °F 100% 29.99 in 0.8 mi SW 5.8 mph - 0.00 in   Overcast
11:53 AM 48.9 °F - 48.0 °F 97% 30.01 in 1.0 mi WSW 4.6 mph - 0.00 in   Overcast
11:57 AM 48.2 °F - 48.2 °F 100% 29.99 in 0.5 mi SW 4.6 mph - N/A Fog Fog
12:06 PM 48.2 °F - 48.2 °F 100% 29.99 in 1.0 mi WSW 4.6 mph - N/A   Overcast
12:24 PM 48.2 °F - 48.2 °F 100% 29.98 in 2.0 mi SW 3.5 mph - 0.00 in Rain Light Rain
12:38 PM 48.2 °F - 48.2 °F 100% 29.97 in 4.0 mi SW 4.6 mph - 0.00 in Rain Light Rain
12:53 PM 50.0 °F - 48.0 °F 93% 29.99 in 3.0 mi SW 3.5 mph - 0.00 in   Overcast
1:00 PM 50.0 °F - 48.2 °F 94% 29.97 in 4.0 mi Calm Calm - 0.00 in Rain Light Rain
1:31 PM 50.0 °F - 48.2 °F 94% 29.95 in 5.0 mi South 3.5 mph - 0.00 in Rain Light Rain
1:53 PM 50.0 °F - 48.9 °F 96% 29.96 in 5.0 mi South 3.5 mph - 0.01 in Rain Light Rain
2:04 PM 50.0 °F - 48.2 °F 94% 29.94 in 5.0 mi SSW 3.5 mph - 0.00 in Rain Light Rain
2:31 PM 50.0 °F - 48.2 °F 94% 29.94 in 4.0 mi South 3.5 mph - 0.02 in Rain Light Rain
2:39 PM 50.0 °F - 48.2 °F 94% 29.94 in 4.0 mi South 3.5 mph - 0.02 in Rain Light Rain
2:53 PM 50.0 °F - 48.9 °F 96% 29.96 in 5.0 mi South 3.5 mph - 0.03 in Rain Light Rain
3:11 PM 50.0 °F - 48.2 °F 94% 29.94 in 3.0 mi Calm Calm - 0.02 in Rain Light Rain
3:18 PM 50.0 °F - 48.2 °F 94% 29.94 in 3.0 mi South 3.5 mph - 0.02 in Rain Light Rain
3:37 PM 50.0 °F - 48.2 °F 94% 29.94 in 2.5 mi SSE 3.5 mph - 0.05 in Rain Rain
3:51 PM 50.0 °F - 48.2 °F 94% 29.93 in 2.5 mi SE 3.5 mph - 0.06 in Rain Light Rain
3:53 PM 50.0 °F - 48.9 °F 96% 29.95 in 2.5 mi SE 3.5 mph - 0.07 in Rain Light Rain
4:01 PM 50.0 °F - 48.2 °F 94% 29.93 in 2.0 mi SE 4.6 mph - 0.01 in Rain Light Rain
4:18 PM 50.0 °F - 48.2 °F 94% 29.93 in 0.8 mi SE 4.6 mph - 0.02 in Rain Light Rain
4:27 PM 50.0 °F - 48.2 °F 94% 29.94 in 2.5 mi SSE 4.6 mph - 0.03 in Rain Light Rain
4:29 PM 50.0 °F - 48.2 °F 94% 29.94 in 3.0 mi SSE 3.5 mph - 0.03 in Rain Light Rain
4:40 PM 50.0 °F - 48.2 °F 94% 29.93 in 1.8 mi Calm Calm - 0.05 in Rain Light Rain
4:48 PM 50.0 °F - 48.2 °F 94% 29.93 in 2.5 mi ESE 3.5 mph - 0.06 in Rain Light Rain
4:53 PM 50.0 °F - 48.9 °F 96% 29.95 in 3.0 mi Calm Calm - 0.07 in Rain Light Rain
5:01 PM 50.0 °F - 48.2 °F 94% 29.93 in 2.5 mi Calm Calm - 0.01 in Rain Light Rain
5:09 PM 48.2 °F - 48.2 °F 100% 29.93 in 1.5 mi Calm Calm - 0.02 in Rain Light Rain
5:13 PM 50.0 °F - 48.2 °F 94% 29.93 in 2.0 mi ESE 3.5 mph - 0.03 in Rain Light Rain
5:17 PM 50.0 °F - 48.2 °F 94% 29.93 in 3.0 mi ESE 3.5 mph - 0.03 in Rain Light Rain
5:40 PM 50.0 °F - 48.2 °F 94% 29.92 in 2.0 mi ESE 4.6 mph - 0.06 in Rain Light Rain
5:53 PM 50.0 °F - 48.9 °F 96% 29.94 in 2.0 mi East 5.8 mph - 0.07 in Rain Light Rain
5:59 PM 50.0 °F - 48.2 °F 94% 29.92 in 3.0 mi East 5.8 mph - 0.00 in Rain Light Rain
6:06 PM 50.0 °F - 48.2 °F 94% 29.92 in 3.0 mi East 5.8 mph - 0.01 in Rain Light Rain
6:25 PM 50.0 °F - 48.2 °F 94% 29.92 in 3.0 mi ESE 4.6 mph - 0.03 in Rain Light Rain
6:42 PM 50.0 °F - 48.2 °F 94% 29.91 in 3.0 mi ESE 4.6 mph - 0.04 in Rain Light Rain
6:53 PM 50.0 °F - 48.9 °F 96% 29.94 in 3.0 mi ESE 3.5 mph - 0.05 in Rain Light Rain
6:59 PM 50.0 °F - 48.2 °F 94% 29.92 in 2.5 mi SE 4.6 mph - 0.01 in Rain Rain
7:24 PM 50.0 °F - 48.2 °F 94% 29.92 in 3.0 mi ESE 4.6 mph - 0.05 in Rain Light Rain
7:38 PM 50.0 °F - 48.2 °F 94% 29.92 in 2.5 mi Calm Calm - 0.06 in Rain Light Rain
7:51 PM 50.0 °F - 48.2 °F 94% 29.92 in 3.0 mi SSE 3.5 mph - 0.09 in Rain Light Rain
8:13 PM 50.0 °F - 48.2 °F 94% 29.91 in 1.8 mi Calm Calm - 0.03 in Rain Light Rain
8:26 PM 50.0 °F - 48.2 °F 94% 29.90 in 1.0 mi East 4.6 mph - 0.06 in Rain Rain
8:37 PM 50.0 °F - 48.2 °F 94% 29.90 in 3.0 mi ESE 4.6 mph - 0.08 in Rain Light Rain
8:53 PM 50.0 °F - 48.9 °F 96% 29.91 in 2.0 mi ESE 5.8 mph - 0.09 in Rain Light Rain
9:02 PM 50.0 °F - 48.2 °F 94% 29.90 in 1.8 mi ESE 5.8 mph - 0.01 in Rain Light Rain
9:08 PM 50.0 °F - 48.2 °F 94% 29.90 in 3.0 mi ESE 4.6 mph - 0.02 in Rain Light Rain
9:35 PM 50.0 °F - 48.2 °F 94% 29.89 in 2.5 mi East 3.5 mph - 0.04 in Rain Light Rain
9:43 PM 50.0 °F - 48.2 °F 94% 29.89 in 2.0 mi ESE 4.6 mph - 0.05 in Rain Light Rain
9:50 PM 50.0 °F - 48.2 °F 94% 29.89 in 3.0 mi East 3.5 mph - 0.06 in Rain Light Rain
9:53 PM 50.0 °F - 48.9 °F 96% 29.90 in 3.0 mi Calm Calm - 0.06 in Rain Rain
9:59 PM 50.0 °F - 50.0 °F 100% 29.89 in 2.5 mi SE 3.5 mph - 0.03 in Rain Rain
10:10 PM 50.0 °F - 50.0 °F 100% 29.88 in 2.0 mi SSE 3.5 mph - 0.06 in Rain Rain
10:20 PM 50.0 °F - 48.2 °F 94% 29.88 in 0.8 mi SE 3.5 mph - 0.08 in Rain Light Rain
10:29 PM 50.0 °F - 48.2 °F 94% 29.88 in 0.5 mi SE 3.5 mph - 0.09 in Fog , Rain Rain
10:42 PM 50.0 °F - 48.2 °F 94% 29.88 in 0.5 mi SE 4.6 mph - 0.10 in Fog , Rain Light Rain
10:48 PM 50.0 °F - 48.2 °F 94% 29.88 in 1.0 mi SSE 4.6 mph - 0.11 in Rain Light Rain
10:53 PM 50.0 °F - 48.9 °F 96% 29.89 in 1.0 mi SE 3.5 mph - 0.11 in Rain Light Rain
10:56 PM 50.0 °F - 48.2 °F 94% 29.87 in 0.5 mi SE 4.6 mph - 0.01 in Fog , Rain Light Rain
11:18 PM 50.0 °F - 48.2 °F 94% 29.87 in 0.8 mi SE 4.6 mph - 0.02 in Rain Light Rain
11:26 PM 50.0 °F - 48.2 °F 94% 29.87 in 0.5 mi SE 4.6 mph - 0.02 in Fog , Rain Light Rain
11:30 PM 50.0 °F - 48.2 °F 94% 29.87 in 1.0 mi SE 3.5 mph - 0.02 in Rain Light Rain
11:34 PM 50.0 °F - 48.2 °F 94% 29.87 in 3.0 mi SE 3.5 mph - 0.02 in Rain Light Rain
11:46 PM 50.0 °F - 48.2 °F 94% 29.87 in 2.5 mi Calm Calm - 0.02 in Rain Light Rain
11:53 PM 50.0 °F - 48.9 °F 96% 29.88 in 5.0 mi South 5.8 mph - 0.02 in Rain Light Rain